Regional Weather Roundup
Issued by NWS Jackson, KY

Home | Current Version | Previous Version | Graphics & Text | Print | Product List | Glossary On
Versions: 1 2 3 4 5 6 7 8 9 10 11 12 13 14 15 16 17 18 19 20 21 22 23 24 25 26 27 28 29 30 31 32 33 34 35 36 37 38 39 40 41 42 43 44 45 46 47 48 49 50
000
ASUS43 KJKL 231010
RWRJKL

EAST KENTUCKY HOURLY WEATHER ROUNDUP
NATIONAL WEATHER SERVICE JACKSON KY
600 AM EDT SUN JUL 23 2017

NOTE: "FAIR" INDICATES FEW OR NO CLOUDS BELOW 12,000 FEET WITH
NO SIGNIFICANT WEATHER AND/OR OBSTRUCTIONS TO VISIBILITY.

* THESE REPORTS ARE NOT UNDER NWS QUALITY CONTROL AND MAY NOT
  REPORT WEATHER SUCH AS PRECIPITATION AND FOG.

KYZ079-080-083-085-087-088-110-112-115-119-120-231100
...EASTERN KENTUCKY...

CITY           SKY/WX    TMP DP  RH WIND       PRES   REMARKS
JACKSON        TSTM      69  67  93 W12G20    30.01R
LONDON         CLOUDY    76  72  87 SW3       29.92S
SOMERSET*      CLOUDY    77  73  88 CALM      29.93R
MONTICELLO*    CLOUDY    74  73  97 W13       29.94R
WILLIAMSBURG*  CLOUDY    75  75 100 CALM      29.93R
MIDDLESBORO*   CLEAR     73  73 100 CALM      29.94R
HARLAN APT*    CLOUDY    72  70  94 CALM      29.95R
PIKE CO APT*   CLOUDY    68  68 100 NW3       29.96R
BIG SANDY APT* CLOUDY    70  70  99 CALM      29.93R
MOREHEAD APT*  LGT RAIN  70  68  94 SW5       29.93R
$$

KYZ035-036-041-042-044-050-067-078-099-231100
...CENTRAL KENTUCKY...

CITY           SKY/WX    TMP DP  RH WIND       PRES   REMARKS
MT STERLING*   LGT RAIN  70  70 100 S6        29.94R
DANVILLE*      CLOUDY    72  68  88 NW6       29.94S
LEXINGTON      LGT RAIN  73  70  90 W8        29.91S
FRANKFORT      RAIN      72  67  84 NW9       29.88F
LOUISVILLE     LGT RAIN  73  70  90 VRB3      29.86F
LEBANON*         N/A     73  66  78 NW5       29.93S
GLASGOW*       CLOUDY    78  75  91 NE6       29.93R
BOWLING GREEN  CLOUDY    79  76  90 NE8       29.91R
$$

KYZ091>093-OHZ055-061-077-WVZ005-015-034-035-042-231100
...SOUTHERN OHIO/WEST VIRGINIA...

CITY           SKY/WX    TMP DP  RH WIND       PRES   REMARKS
COVINGTON      CLOUDY    73  73 100 SW8       29.84F
COLUMBUS       CLOUDY    74  74 100 S3        29.80R
DAYTON         CLOUDY    74  72  93 SW9       29.83R
WILMINGTON     LGT RAIN  72  72 100 SW13      29.83R
HUNTINGTON     LGT RAIN  70  67  90 SW8       29.86F
CHARLESTON     MOCLDY    71  67  87 SW6       29.86R
PINEVILLE*     LGT RAIN  71  69  95 MISG      30.00R
BECKLEY        LGT RAIN  68  65  90 W8        29.97S
BLUEFIELD      TSTM      67  65  93 W8        30.02R
LOGAN CO APT*  RAIN      70  68  94 CALM      29.94R
$$

VAZ002-007-008-TNZ017-027-036-066-071-231100
...SOUTHWEST VIRGINIA/EAST TENNESSEE...

CITY           SKY/WX    TMP DP  RH WIND       PRES   REMARKS
WISE*          CLOUDY    70  70 100 CALM      30.03S
JONESVILLE*      N/A     73  72  94 CALM      29.96R
ABINGDON*      TSTM      73  69  89 CALM      29.99R
BRISTOL        MOCLDY    73  72  96 CALM      29.95R
MORRISTOWN*    MOSUNNY   77  73  88 SW5       29.93S
SEVIERVILLE*   PTSUNNY   79  70  73 SW5       29.93R
KNOXVILLE      PTCLDY    78  73  84 SW6       29.92R
LAFOLLETTE*      N/A     75  73  94 CALM      29.96R
OAK RIDGE      CLEAR     78  73  84 S3        29.93S
CROSSVILLE     CLEAR     72  70  93 W3        29.98R
NASHVILLE      CLEAR     80  69  69 SW7       29.90S
$$

...KEY TO REMARKS...
VSB - VISIBILITY IN MILES
WCI - WIND CHILL INDEX
HX  - HEAT INDEX

$$



USA.gov is the U.S. government's official web portal to all federal, state and local government web resources and services.